一网星座-0521星 (ONEWEB-0521 )

导读

ONEWEB-0521是英国OneWeb(一网公司)低轨卫星互联网星座的组网卫星,于2022年10月22日发射升空,归属英国运营。该卫星质量约175-200kg,运行在高度1200公里的近地极地轨道,工作于Ku波段,采用渐进俯仰技术避免信号干扰,旨在为全球提供高速低延迟卫星互联网接入服务,助力OneWeb完成全球覆盖的星座组网目标,填补偏远地区网络覆盖空白。

Basic Information
目录编号:
54139
目录名称:
ONEWEB-0521
国际标识:
2022-138AC
轨道中心:
EARTH
卫星名称:
一网星座-0521星
卫星全名:
一网星座-0521星 (ONEWEB-0521 )
卫星状态:
在轨 (已飞行1421 天)
发射日期:
2022-10-22 UTC
国别 :
英国 (GB)
星等 :
--
This satellite is enrolled in the Space Conjunction Data Service (SCDS) and the current flight risk assessment level is: No High Risk
Orbit Information
数据来源 国际轨道数据 AOE轨道数据
星历时间 2026-09-11T22:15:36+0800
15小时前
查看轨道信息
2026-09-10T23:00:00+0800
1天前
查看轨道信息
半长轴 7563.907km 7563.94km
偏心率 0.0002063 0.0002672
轨道倾角 87.913° 87.914°
近地点辐角 99.148° 35.151°
升交点赤经 287.750° 287.943°
平近点角 260.988° 43.057°
近地点 1184.209km 1183.781km
远地点 1187.331km 1187.825km
周期 109.114分钟 109.114分钟
每日圈数 13.197253 13.197166
Detailed Information
平衡模式:
三轴稳定
覆盖范围:
全球
运营商:
一网卫星公司
运营商所在国:
英国
制造商(研发单位):
一网卫星公司
制造商所在国:
英国
使用方式:
暂无
Satellite Introduction
OneWeb卫星网络由648颗重约125公斤的微型卫星组成,运行在1200公里的轨道上。 每颗卫星都能够提供至少每秒8千兆位的吞吐量,以使用其高吞吐量的Ku频段有效载荷为家庭和移动平台提供互联网接入。该卫星仍在工作。
2D Orbit Map
3D Orbit Map
Orbit Altitude Analysis Chart
Orbit Inclination Analysis Chart
Orbit Comprehensive Analysis Chart
View Comprehensive Chart
Miss Distance Evolution Trend with All Objects
Collision Probability Evolution Trend with All Objects